Weerstation Grootegast  Weerstation Grootegast


15 daagse weersverwachting Bielefeld (DE)

  • Overzicht
  • Per uur
  • 15 dagen
  • Extra
  • Vergelijk
  • Kaarten
  • Dagkaart
  • Meer »
  • Info
  • Statistieken
  • Directe link
    Temp 6h Neerslag Wind  
 07:19     17:59    Daglengte: 10:40 Morgen
01:00
0.8 mm
4
07:00
5.4 mm
5
13:00
4.2 mm
5
19:00
4.6 mm
5
 07:17     18:01    Daglengte: 10:44 Donderdag 27 Feb
01:00
6.5 mm
5
07:00
 
5
13:00
1.2 mm
4
19:00
10.7 mm
3
 07:15     18:03    Daglengte: 10:48 Vrijdag 28 Feb
01:00
13.2 mm
5
warningclass
07:00
4.6 mm
5
warningclass
13:00
 
7
19:00
 
3
Locatie info
Region: Nordrhein-Westfalen
Latitude: 52.0230°N
Longitude: 8.5333°E
111 masl
Postcode: 33602
Temp/Neerslag /Baro Onweer/DauwpuntSneeuw
    Temp Baro 1h Neerslag Dauwpunt Wind UV BewolkingSneeuw  
 07:19     17:59    Daglengte: 10:40 Morgen
00:00
Voelt als: -0.9°
993.4 hPa
74%
1.9°
4
Windvlaag: 3.4 m/s
72%
01:00
Voelt als: -1.2°
993.0 hPa
76%
1.9°
4
Windvlaag: 3 m/s
83%
02:00
Voelt als: -1.0°
992.2 hPa 0.5 mm
81%
1.8°
3
Windvlaag: 2.9 m/s
79%
03:00
Voelt als: -1.1°
991.3 hPa 0.7 mm
82%
1.6°
3
Windvlaag: 2.3 m/s
90%
04:00
Voelt als: -1.1°
990.5 hPa 0.9 mm
82%
1.5°
3
Windvlaag: 2.2 m/s
90%
05:00
Voelt als: -2.6°
990.3 hPa 1.1 mm
82%
0.7°
5
Windvlaag: 3.4 m/s
88%
06:00
Voelt als: -3.0°
990.3 hPa 1.0 mm
82%
1.0°
5
Windvlaag: 2.4 m/s
91%
07:00
Voelt als: -3.6°
990.4 hPa 1.4 mm
82%
0.8°
5
Windvlaag: 2 m/s
91%
08:00
Voelt als: -3.9°
991.2 hPa 1.2 mm
82%
0.5°
6
Windvlaag: 1.9 m/s
91% warningclass
09:00
Voelt als: -3.7°
992.1 hPa 0.9 mm
82%
0.5°
5
Windvlaag: 2.6 m/s
90% warningclass
10:00
Voelt als: -3.0°
992.9 hPa 0.8 mm
82%
0.8°
4
Windvlaag: 2.2 m/s
90%
11:00
Voelt als: -1.6°
993.7 hPa 0.7 mm
81%
0.6°
4
Windvlaag: 2 m/s
78%
12:00
Voelt als: 0.0°
994.4 hPa
82%
1.4°
4
Windvlaag: 2 m/s
89%
13:00
Voelt als: 0.6°
995.0 hPa 0.7 mm
80%
2.0°
5
Windvlaag: 1.8 m/s
84%
14:00
Voelt als: 1.3°
995.4 hPa 0.5 mm
82%
2.5°
5
Windvlaag: 1.1 m/s
72%
15:00
Voelt als: 0.8°
996.0 hPa 0.7 mm
78%
1.7°
5
Windvlaag: 1.3 m/s
74%
16:00
Voelt als: 0.2°
996.7 hPa 1.0 mm
66%
2.3°
5
Windvlaag: 2.2 m/s
76%
17:00
Voelt als: -0.0°
997.6 hPa 0.9 mm
79%
1.4°
6
Windvlaag: 1.6 m/s
63%
18:00
Voelt als: -0.4°
998.8 hPa 0.8 mm
80%
1.2°
5
Windvlaag: 1 m/s
68%
19:00
Voelt als: -1.1°
1000.0 hPa 0.8 mm
82%
0.7°
5
Windvlaag: 1 m/s
82%
20:00
Voelt als: -1.2°
1000.8 hPa 0.8 mm
82%
1.0°
5
Windvlaag: 1.8 m/s
78%
21:00
Voelt als: -1.6°
1001.5 hPa 0.8 mm
82%
1.1°
5
Windvlaag: 2.1 m/s
88%
22:00
Voelt als: -1.7°
1002.2 hPa 1.0 mm
80%
1.2°
5
Windvlaag: 0.9 m/s
85%1 cm
23:00
Voelt als: -1.7°
1002.6 hPa 1.4 mm
76%
1.4°
5
Windvlaag: 0.6 m/s
80%1 cm
 07:17     18:01    Daglengte: 10:44 Donderdag 27 Feb
00:00
Voelt als: -2.1°
1002.9 hPa 1.4 mm
74%
1.0°
5
Windvlaag: 1.1 m/s
79%1 cm
01:00
Voelt als: -2.3°
1003.2 hPa 1.2 mm
77%
1.0°
5
Windvlaag: 2.1 m/s
41%1 cm
02:00
Voelt als: -2.6°
1003.6 hPa
33%
0.6°
5
Windvlaag: 2.2 m/s
47%1 cm
03:00
Voelt als: -2.7°
1003.5 hPa
23%
0.7°
5
Windvlaag: 2.3 m/s
72%1 cm
04:00
Voelt als: -3.1°
1003.3 hPa
33%
0.3°
5
Windvlaag: 2.9 m/s
56%1 cm
05:00
Voelt als: -3.6°
1003.2 hPa
33%
-0.1°
5
Windvlaag: 3.5 m/s
75%1 cm
06:00
Voelt als: -3.7°
1003.1 hPa
22%
-0.4°
5
Windvlaag: 3.5 m/s
75%1 cm
07:00
Voelt als: -3.5°
1002.9 hPa
65%
-0.2°
5
Windvlaag: 3.7 m/s
68%1 cm
08:00
Voelt als: -3.2°
1002.7 hPa
34%
-0.4°
5
Windvlaag: 3.6 m/s
84%1 cm
09:00
Voelt als: -2.5°
1002.2 hPa
26%
-0.6°
4
Windvlaag: 3.5 m/s
87%1 cm
10:00
Voelt als: -1.7°
1001.5 hPa
21%
-0.7°
4
Windvlaag: 4.2 m/s
90%1 cm
11:00
Voelt als: -0.7°
1000.6 hPa
17%
-0.7°
4
Windvlaag: 4.4 m/s
91%1 cm
12:00
Voelt als: -0.0°
999.7 hPa
28%
-1.1°
4
Windvlaag: 4.4 m/s
91%1 cm
13:00
Voelt als: 0.6°
998.4 hPa 1.2 mm
82%
-0.3°
4
Windvlaag: 4.2 m/s
91%1 cm
14:00
Voelt als: 0.5°
996.9 hPa 0.9 mm
82%
-0.8°
4
Windvlaag: 3.2 m/s
91%1 cm
15:00
Voelt als: 0.6°
995.5 hPa 1.3 mm
33%
-0.8°
4
Windvlaag: 3.3 m/s
91%1 cm
16:00
Voelt als: 0.2°
994.2 hPa 1.7 mm
30%
-0.2°
3
Windvlaag: 2.5 m/s
100%1 cm
17:00
Voelt als: -0.8°
993.7 hPa 1.9 mm
80%
0.7°
3
Windvlaag: -0 m/s
100%1 cm
18:00
Voelt als: -1.4°
994.1 hPa 2.2 mm
82%
0.9°
3
Windvlaag: -1 m/s
100%2 cm
19:00
Voelt als: -1.8°
995.1 hPa 2.6 mm
90%
0.9°
3
Windvlaag: -2.8 m/s
100%2 cm
20:00
Voelt als: -2.6°
996.3 hPa 2.5 mm
92%
0.8°
3
Windvlaag: -4.3 m/s
100%2 cm warningclass
21:00
Voelt als: -2.8°
997.4 hPa 2.3 mm
100%
0.7°
3
Windvlaag: -4.4 m/s
100%3 cm warningclass
22:00
Voelt als: -2.8°
998.8 hPa 1.6 mm
100%
0.6°
3
Windvlaag: -3.7 m/s
100%3 cm warningclass
23:00
Voelt als: -3.5°
1000.6 hPa 1.8 mm
100%
0.5°
4
Windvlaag: -2.7 m/s
99%3 cm warningclass
 07:15     18:03    Daglengte: 10:48 Vrijdag 28 Feb
00:00
Voelt als: -3.9°
1002.2 hPa 2.6 mm
100%
0.1°
4
Windvlaag: -0.7 m/s
97%3 cm warningclass
01:00
Voelt als: -4.1°
1003.7 hPa 2.5 mm
100%
0.0°
5
Windvlaag: 0.7 m/s
87%3 cm warningclass
02:00
Voelt als: -3.6°
1005.3 hPa 2.3 mm
96%
-0.1°
5
Windvlaag: 2.5 m/s
66%3 cm warningclass
03:00
Voelt als: -4.0°
1006.2 hPa
38%
-0.4°
5
Windvlaag: 2.9 m/s
50%3 cm
04:00
Voelt als: -4.2°
1007.1 hPa
41%
-0.6°
5
Windvlaag: 3.2 m/s
33%3 cm
05:00
Voelt als: -4.2°
1008.0 hPa
43%
-0.5°
5
Windvlaag: 3.1 m/s
29%3 cm
06:00
Voelt als: -4.1°
1008.9 hPa
44%
-0.7°
5
Windvlaag: 3 m/s
44%3 cm
07:00
Voelt als: -4.2°
1009.8 hPa 2.3 mm
93%
-0.9°
5
Windvlaag: 3 m/s
41%3 cm warningclass
08:00
Voelt als: -4.0°
1010.9 hPa
49%
-0.5°
5
Windvlaag: 3.1 m/s
34%3 cm
09:00
Voelt als: -3.2°
1011.8 hPa
79%
-0.2°
5
Windvlaag: 3.5 m/s
64%3 cm
10:00
Voelt als: -2.3°
1012.4 hPa
41%
0.3°
6
Windvlaag: 3.5 m/s
69%3 cm
11:00
Voelt als: -0.8°
1013.0 hPa
42%
0.7°
6
Windvlaag: 3.1 m/s
84%3 cm
12:00
Voelt als: 0.5°
1013.5 hPa
96%
0.5°
6
Windvlaag: 2.8 m/s
87%3 cm
13:00
Voelt als: 0.9°
1013.5 hPa
27%
0.3°
7
Windvlaag: 2.5 m/s
86%2 cm
14:00
Voelt als: 1.3°
1013.8 hPa
21%
0.7°
6
Windvlaag: 9.8 m/s
68%2 cm
15:00
Voelt als: 1.3°
1013.6 hPa
21%
0.7°
6
Windvlaag: 9.7 m/s
81%2 cm
16:00
Voelt als: 1.1°
1013.4 hPa
21%
0.7°
5
Windvlaag: 10 m/s
61%2 cm
17:00
Voelt als: 0.8°
1013.1 hPa
21%
0.5°
4
Windvlaag: 10.1 m/s
74%2 cm
18:00
Voelt als: -0.0°
1012.9 hPa
21%
-0.1°
4
Windvlaag: 8 m/s
83%2 cm
19:00
Voelt als: 0.1°
1012.7 hPa
21%
-0.2°
3
Windvlaag: 1.1 m/s
88%2 cm
20:00
Voelt als: -0.7°
1012.0 hPa
21%
-0.8°
3
Windvlaag: 9.3 m/s
91%2 cm
21:00
Voelt als: -0.7°
1011.1 hPa
21%
-1.1°
4
Windvlaag: 8.8 m/s
93%2 cm
22:00
Voelt als: -0.7°
1010.0 hPa
21%
-1.4°
4
Windvlaag: 7.9 m/s
88%2 cm
23:00
Voelt als: -1.1°
1009.0 hPa
21%
-1.7°
4
Windvlaag: 6.9 m/s
88%2 cm
Temp/Neerslag /Baro Onweer/DauwpuntSneeuw
    Temp Baro Neerslag Dauwpunt Wind BewolkingSneeuw  
 07:19     17:59    Daglengte: 10:40 Morgen
01:00
Voelt als: -1.2°
993.0 hPa 0.8 mm 1.9°
4
83%
04:00
Voelt als: -1.1°
990.5 hPa 2.0 mm 1.5°
3
90%
07:00
Voelt als: -3.6°
990.4 hPa 3.4 mm 0.8°
5
91%
10:00
Voelt als: -3.0°
992.9 hPa 2.8 mm 0.8°
4
90%
13:00
Voelt als: 0.6°
995.0 hPa 1.4 mm 2.0°
5
84%
16:00
Voelt als: 0.2°
996.7 hPa 2.2 mm 2.3°
5
76%
19:00
Voelt als: -1.1°
1000.0 hPa 2.4 mm 0.7°
5
82%
22:00
Voelt als: -1.7°
1002.2 hPa 2.6 mm 1.2°
5
85%1 cm
 07:17     18:01    Daglengte: 10:44 Donderdag 27 Feb
01:00
Voelt als: -2.3°
1003.2 hPa 4.0 mm 1.0°
5
41%1 cm
04:00
Voelt als: -3.1°
1003.3 hPa   0.3°
5
56%1 cm
07:00
Voelt als: -3.5°
1002.9 hPa   -0.2°
5
68%1 cm
10:00
Voelt als: -1.7°
1001.5 hPa   -0.7°
4
90%1 cm
13:00
Voelt als: 0.6°
998.4 hPa 1.2 mm -0.3°
4
91%1 cm
16:00
Voelt als: 0.2°
994.2 hPa 3.9 mm -0.2°
3
100%1 cm
19:00
Voelt als: -1.8°
995.1 hPa 6.7 mm 0.9°
3
100%2 cm
22:00
Voelt als: -2.8°
998.8 hPa 6.3 mm 0.6°
3
100%3 cm warningclass
 07:15     18:03    Daglengte: 10:48 Vrijdag 28 Feb
01:00
Voelt als: -4.1°
1003.7 hPa 6.9 mm 0.0°
5
87%3 cm warningclass
04:00
Voelt als: -4.2°
1007.1 hPa 2.3 mm -0.6°
5
33%3 cm warningclass
07:00
Voelt als: -4.2°
1009.8 hPa 2.3 mm -0.9°
5
41%3 cm warningclass
10:00
Voelt als: -2.3°
1012.4 hPa   0.3°
6
69%3 cm
13:00
Voelt als: 0.9°
1013.5 hPa   0.3°
7
86%2 cm
16:00
Voelt als: 1.1°
1013.4 hPa   0.7°
5
61%2 cm
19:00
Voelt als: 0.1°
1012.7 hPa   -0.2°
3
88%2 cm
22:00
Voelt als: -0.7°
1010.0 hPa   -1.4°
4
88%2 cm
 07:13     18:04    Daglengte: 10:51 Zaterdag 29 Feb
01:00
Voelt als: -1.2°
1007.1 hPa   -2.3°
5
91%2 cm
04:00
Voelt als: 0.5°
1003.5 hPa 15.9 mm 1.7°
5
92%
07:00
Voelt als: 1.2°
1001.1 hPa 20.1 mm 3.6°
5
92%
10:00
Voelt als: 5.0°
998.5 hPa 20.4 mm 5.5°
5
83%
13:00
11°
995.9 hPa 20.4 mm 7.1°
6
75%
16:00
10°
993.3 hPa 20.4 mm 6.7°
6
83%
19:00
10°
Voelt als: 6.3°
990.8 hPa 21.6 mm 6.5°
7
92%
22:00
Voelt als: 2.6°
994.8 hPa 22.9 mm 4.1°
7
76%
 07:10     18:06    Daglengte: 10:56 Zondag 01 Maa
01:00
Voelt als: -0.9°
998.7 hPa 22.9 mm 2.0°
8
60%
04:00
Voelt als: -1.7°
1000.8 hPa 22.9 mm 0.9°
7
39%
07:00
Voelt als: -2.5°
1002.9 hPa 22.9 mm -0.1°
6
19%
10:00
Voelt als: 0.6°
1003.4 hPa 22.9 mm -0.2°
7
50%
13:00
Voelt als: 3.6°
1003.9 hPa 23.2 mm -0.9°
8
82%
16:00
Voelt als: 2.7°
1003.4 hPa 23.9 mm -1.1°
7
42%
19:00
Voelt als: 2.0°
1002.9 hPa 25.1 mm -1.5°
5
3%
22:00
Voelt als: 0.5°
1001.1 hPa 27.5 mm -2.0°
5
47%
 07:08     18:08    Daglengte: 11:00 Maandag 02 Maa
01:00
Voelt als: -1.0°
999.2 hPa 27.6 mm -2.4°
5
92%
04:00
Voelt als: -0.9°
997.6 hPa 27.6 mm -0.4°
5
91%
07:00
Voelt als: -0.8°
995.9 hPa 27.6 mm 1.4°
4
91%
10:00
Voelt als: 1.9°
995.7 hPa 27.6 mm 2.9°
5
91%
13:00
Voelt als: 4.4°
995.4 hPa 28.7 mm 4.4°
5
90%
16:00
Voelt als: 3.1°
997.4 hPa 29.8 mm 3.9°
4
55%
19:00
Voelt als: 1.3°
999.6 hPa 31.3 mm 3.0°
3
19%
22:00
Voelt als: -0.4°
1002.0 hPa 31.4 mm 1.5°
3
10%
 07:06     18:10    Daglengte: 11:04 Dinsdag 03 Maa
01:00
Voelt als: -2.1°
1004.4 hPa 31.4 mm 0.0°
3
1% warningclass
04:00
Voelt als: -2.8°
1006.4 hPa 31.4 mm -0.7°
3
1% warningclass
07:00
-0°
Voelt als: -3.6°
1008.4 hPa 31.4 mm -1.5°
2
1% warningclass
10:00
Voelt als: -0.3°
1010.5 hPa 31.4 mm -0.0°
3
19%
13:00
Voelt als: 3.2°
1012.5 hPa 31.4 mm 0.9°
4
37%
16:00
Voelt als: 1.9°
1013.3 hPa 31.8 mm -0.2°
3
42%
19:00
Voelt als: 0.3°
1014.1 hPa 31.8 mm -1.1°
3
47%
22:00
Voelt als: -0.9°
1013.1 hPa   -1.7°
3
54%
 07:04     18:12    Daglengte: 11:08 Woensdag 04 Maa
01:00
Voelt als: -1.9°
1011.8 hPa 63.6 mm -2.4°
4
61%
07:00
Voelt als: -2.3°
1005.0 hPa 73.1 mm -0.5°
6
92%
13:00
Voelt als: 3.8°
1001.7 hPa 80.0 mm 4.2°
7
66%
19:00
Voelt als: 2.4°
1003.7 hPa 84.1 mm 3.7°
4
92%
 07:01     18:13    Daglengte: 11:12 Donderdag 05 Maa
01:00
Voelt als: 0.8°
996.6 hPa 86.2 mm 3.1°
6
92%
07:00
Voelt als: -4.3°
996.1 hPa 89.1 mm -0.1°
10
91%
13:00
Voelt als: 1.3°
1000.9 hPa 91.7 mm 1.8°
8
75%
19:00
Voelt als: -1.0°
1001.1 hPa 94.6 mm 1.0°
5
80%
 06:59     18:15    Daglengte: 11:16 Vrijdag 06 Maa
01:00
Voelt als: -2.5°
1000.4 hPa 95.2 mm 0.9°
5
71%
07:00
Voelt als: -3.5°
999.3 hPa 95.4 mm -0.1°
6
91%
13:00
Voelt als: -0.5°
1014.9 hPa 101.0 mm 1.6°
4
1%
19:00
Voelt als: 0.0°
1004.1 hPa 0.8 mm 0.6°
2
72%
 06:57     18:17    Daglengte: 11:20 Zaterdag 07 Maa
01:00
Voelt als: -1.8°
1005.3 hPa 0.5 mm -0.5°
2
63%
07:00
Voelt als: -2.1°
1005.4 hPa 0.9 mm -0.9°
2
58%
13:00
Voelt als: 3.0°
1007.0 hPa 0.6 mm 1.0°
3
53%
19:00
Voelt als: 1.8°
1008.0 hPa 0.9 mm 0.5°
1
58%
 06:55     18:19    Daglengte: 11:24 Zondag 08 Maa
01:00
Voelt als: 0.3°
1010.2 hPa 0.6 mm -0.8°
1
56%
07:00
-0°
Voelt als: -0.7°
1011.4 hPa 0.4 mm -1.7°
1
49%
13:00
Voelt als: 4.6°
1012.2 hPa 0.9 mm 0.7°
1
60%
19:00
1012.6 hPa 1.1 mm 0.9°
0
66%
 06:52     18:20    Daglengte: 11:28 Maandag 09 Maa
01:00
Voelt als: 0.7°
1014.3 hPa 0.6 mm -0.4°
1
56%
07:00
Voelt als: -1.1°
1015.3 hPa 0.3 mm -1.0°
1
53%
13:00
Voelt als: 4.1°
1016.0 hPa 0.4 mm 0.6°
2
54%
19:00
Voelt als: 1.7°
1016.9 hPa 0.4 mm 0.7°
1
51%
 06:50     18:22    Daglengte: 11:32 Dinsdag 10 Maa
01:00
Voelt als: -0.4°
1018.4 hPa 0.2 mm -0.2°
2
41%
07:00
Voelt als: -1.1°
1019.5 hPa 0.8 mm -0.8°
2
53%
13:00
Voelt als: 2.9°
1020.7 hPa 0.4 mm 0.6°
3
60%
19:00
Voelt als: 0.2°
1021.0 hPa 0.6 mm 0.4°
2
65%
 06:48     18:24    Daglengte: 11:36 Woensdag 11 Maa
01:00
Voelt als: -1.2°
1022.0 hPa 0.4 mm -0.1°
2
54%
07:00
Voelt als: -0.7°
1022.3 hPa 0.3 mm 0.1°
2
61%
13:00
Voelt als: 3.3°
1022.5 hPa 0.5 mm 1.0°
3
67%
19:00
Voelt als: 1.0°
1022.9 hPa 0.8 mm 0.3°
2
66%
  CAPE Lifted Index Hail Supercell Tornado SRH 3km CL BTM PRES CL TOP PRES Swiss DWD icon SMHI TS
 07:19     17:59    Daglengte: 10:40 Morgen
00:00 0 J/kg 1.6 K 0 % 0 % 0 % 0 m²/s² 0 0 2.74 3
01:00 0 J/kg 1.4 K 0 % 0 % 0 % 0 m²/s² 0 0 4.52 3
02:00 0 J/kg 1.1 K 0 % 0 % 0 % 0 m²/s² 0 0 4.64 53
03:00 0 J/kg 0.7 K 0 % 0 % 0 % 0 m²/s² 0 0 4.24 80
04:00 0 J/kg 0.8 K 0 % 0 % 0 % 0 m²/s² 0 0 3.5 80
05:00 3 J/kg 0.5 K 0 % 0 % 0 % 0 m²/s² 0 0 2.24 61
06:00 2 J/kg 0.6 K 0 % 0 % 0 % 0 m²/s² 0 0 1.92 61
07:00 1 J/kg 0.3 K 0 % 0 % 0 % 0 m²/s² 0 0 0.96 61
08:00 2 J/kg 0.6 K 0 % 0 % 0 % 0 m²/s² 0 0 2.43 73
09:00 3 J/kg 1.2 K 0 % 0 % 0 % 0 m²/s² 0 0 4.2 85
10:00 1 J/kg 0.3 K 0 % 0 % 0 % 0 m²/s² 0 0 3.54 85
11:00 268 J/kg -1.1 K 0 % 0 % 0 % 0 m²/s² 0 0 1.42 3
12:00 279 J/kg -1.2 K 0 % 0 % 0 % 0 m²/s² 0 0 1.41 80
13:00 351 J/kg -1.7 K 0 % 0 % 0 % 0 m²/s² 0 0 1.03 80
14:00 442 J/kg -2.4 K 0 % 0 % 0 % 0 m²/s² 0 0 -0.45 3
15:00 404 J/kg -2.0 K 0 % 0 % 0 % 0 m²/s² 0 0 -1.19 3
16:00 46 J/kg 0.2 K 0 % 0 % 0 % 0 m²/s² 0 0 0.65 3
17:00 34 J/kg -0.6 K 0 % 0 % 0 % 0 m²/s² 0 0 1.41 3
18:00 412 J/kg -2.1 K 0 % 0 % 0 % 0 m²/s² 0 0 -0.75 3
19:00 212 J/kg -1.2 K 0 % 0 % 0 % 0 m²/s² 0 0 1.26 80
20:00 247 J/kg -1.1 K 0 % 0 % 0 % 0 m²/s² 0 0 -0.08 80
21:00 10 J/kg -0.3 K 0 % 0 % 0 % 0 m²/s² 0 0 0.12 80
22:00 0 J/kg -0.7 K 0 % 0 % 0 % 0 m²/s² 0 0 1.01 3
23:00 33 J/kg -0.7 K 0 % 0 % 0 % 0 m²/s² 0 0 3.86 3
 07:17     18:01    Daglengte: 10:44 Donderdag 27 Feb
00:00 4 J/kg -0.3 K 0 % 0 % 0 % 0 m²/s² 0 0 5.4 3
01:00 0 J/kg -0.1 K 0 % 0 % 0 % 0 m²/s² 0 0 3.89 3
02:00 0 J/kg 0.5 K 0 % 0 % 0 % 0 m²/s² 0 0 2.54 3
03:00 30 J/kg 2.1 K 0 % 0 % 0 % 0 m²/s² 0 0 3.75 2
04:00 61 J/kg 3.8 K 0 % 0 % 0 % 0 m²/s² 0 0 6.08 2
05:00 33 J/kg 4.6 K 0 % 0 % 0 % 0 m²/s² 0 0 8.59 3
06:00 2 J/kg 5.5 K 0 % 0 % 0 % 0 m²/s² 0 0 9.31 3
07:00 0 J/kg 6.0 K 0 % 0 % 0 % 0 m²/s² 0 0 9.03 3
08:00 0 J/kg 7.0 K 0 % 0 % 0 % 0 m²/s² 0 0 9.46 3
09:00 0 J/kg 7.5 K 0 % 0 % 0 % 0 m²/s² 0 0 9.96 3
10:00 0 J/kg 7.0 K 0 % 0 % 0 % 0 m²/s² 0 0 7.72 3
11:00 0 J/kg 7.3 K 0 % 0 % 0 % 0 m²/s² 0 0 7.96 3
12:00 0 J/kg 7.6 K 0 % 0 % 0 % 0 m²/s² 0 0 8.26 3
13:00 12 J/kg 7.7 K 0 % 0 % 0 % 0 m²/s² 0 0 8.36 3
14:00 16 J/kg 7.7 K 0 % 0 % 0 % 0 m²/s² 0 0 8.3 3
15:00 10 J/kg 7.4 K 0 % 0 % 0 % 0 m²/s² 0 0 8.03 3
16:00 12 J/kg 7.2 K 0 % 0 % 0 % 0 m²/s² 0 0 7.77 3
17:00 1 J/kg 6.6 K 0 % 0 % 0 % 0 m²/s² 0 0 7.17 3
18:00 0 J/kg 5.4 K 0 % 0 % 0 % 0 m²/s² 0 0 5.97 3
19:00 0 J/kg 4.5 K 0 % 0 % 0 % 0 m²/s² 0 0 5.1 3
20:00 0 J/kg 3.6 K 0 % 0 % 0 % 0 m²/s² 0 0 4.2 3
21:00 1 J/kg 2.9 K 0 % 0 % 0 % 0 m²/s² 0 0 3.5 3
22:00 0 J/kg 1.9 K 0 % 0 % 0 % 0 m²/s² 0 0 2.5 61
23:00 1 J/kg 0.6 K 0 % 0 % 0 % 0 m²/s² 0 0 1.17 61
 07:15     18:03    Daglengte: 10:48 Vrijdag 28 Feb
00:00 0 J/kg 0.4 K 0 % 0 % 0 % 0 m²/s² 0 0 1 61
01:00 12 J/kg 0.9 K 0 % 0 % 0 % 0 m²/s² 0 0 3.06 73
02:00 0 J/kg 1.1 K 0 % 0 % 0 % 0 m²/s² 0 0 5.63 77
03:00 0 J/kg 1.6 K 0 % 0 % 0 % 0 m²/s² 0 0 4.39 3
04:00 0 J/kg 1.0 K 0 % 0 % 0 % 0 m²/s² 0 0 6.52 3
05:00 0 J/kg 2.6 K 0 % 0 % 0 % 0 m²/s² 0 0 6.2 2
06:00 0 J/kg 4.0 K 0 % 0 % 0 % 0 m²/s² 0 0 8.65 2
07:00 0 J/kg 5.5 K 0 % 0 % 0 % 0 m²/s² 0 0 10.18 2
08:00 0 J/kg 6.4 K 0 % 0 % 0 % 0 m²/s² 0 0 7.75 2
09:00 2 J/kg 6.3 K 0 % 0 % 0 % 0 m²/s² 0 0 11.55 2
10:00 57 J/kg 6.7 K 0 % 0 % 0 % 0 m²/s² 0 0 12.28 2
11:00 99 J/kg 6.4 K 0 % 0 % 0 % 0 m²/s² 0 0 12.55 2
12:00 75 J/kg 6.5 K 0 % 0 % 0 % 0 m²/s² 0 0 12.29 85
13:00 67 J/kg 7.1 K 0 % 0 % 0 % 0 m²/s² 0 0 13.31 1
14:00 76 J/kg 7.2 K 0 % 0 % 0 % 0 m²/s² 0 0 13.89 2
15:00 82 J/kg 7.1 K 0 % 0 % 0 % 0 m²/s² 0 0 13.55 2
16:00 44 J/kg 7.9 K 0 % 0 % 0 % 0 m²/s² 0 0 13.45 1
17:00 48 J/kg 8.7 K 0 % 0 % 0 % 0 m²/s² 0 0 13.53 2
18:00 30 J/kg 9.7 K 0 % 0 % 0 % 0 m²/s² 0 0 13.33 3
19:00 11 J/kg 10.7 K 0 % 0 % 0 % 0 m²/s² 0 0 13.37 3
20:00 0 J/kg 11.7 K 0 % 0 % 0 % 0 m²/s² 0 0 13.47 3
21:00 0 J/kg 12.2 K 0 % 0 % 0 % 0 m²/s² 0 0 13.94 3
22:00 0 J/kg 11.6 K 0 % 0 % 0 % 0 m²/s² 0 0 12.77 3
23:00 0 J/kg 12.4 K 0 % 0 % 0 % 0 m²/s² 0 0 13.39 3
Temp Baro Wind Neerslag
  EWN Forecast EWN WRFDA DWD ICON FMI HIRLAM MET Norway GFS
 07:19     17:59    Daglengte: 10:40 Morgen
01:00 2.6° 993.0 hPa 4.2 m/s 0.8 mm 1.2° 989.2 hPa 4.2 m/s 3.5 mm 3.5° 994.0 hPa 3.6 m/s -0.9 mm 2.0° 991.6 hPa 5.0 m/s 0.0 mm 2.8° 993.3 hPa 4.1 m/s 1.6° 992.9 hPa 3.9 m/s
04:00 2.2° 990.5 hPa 3.4 m/s 2.0 mm 1.5° 987.4 hPa 4.0 m/s 3.5 mm 2.6° 991.7 hPa 2.8 m/s 1.1 mm 2.2° 988.5 hPa 2.9 m/s 0.0 mm 1.6° 990.8 hPa 5.1 m/s 1.4° 991.5 hPa 7.7 m/s
07:00 1.3° 990.4 hPa 5.5 m/s 3.4 mm 0.9° 987.1 hPa 3.3 m/s 3.8 mm 0.8° 991.4 hPa 3.3 m/s 4.6 mm 2.1° 988.0 hPa 6.4 m/s 0.0 mm 1.2° 990.7 hPa 5.8 m/s 1.6° 990.9 hPa 3.2 m/s
10:00 1.2° 992.9 hPa 4.4 m/s 2.8 mm 1.9° 989.1 hPa 3.9 m/s 3.8 mm 1.2° 993.9 hPa 4.2 m/s 2.6 mm 1.4° 988.8 hPa 4.1 m/s 0.0 mm 1.3° 993.6 hPa 5.0 m/s 1.3° 992.4 hPa 2.9 m/s
13:00 4.3° 995.0 hPa 4.8 m/s 1.4 mm 6.6° 991.1 hPa 7.4 m/s 4.3 mm 3.9° 995.6 hPa 4.2 m/s 0.7 mm 5.4° 991.4 hPa 5.4 m/s 0.0 mm 4.2° 995.8 hPa 4.7 m/s 4.2° 995.2 hPa 4.9 m/s
16:00 4.2° 996.7 hPa 5.4 m/s 2.2 mm 3.7° 993.4 hPa 8.9 m/s 6.1 mm 4.8° 997.0 hPa 4.9 m/s 0.2 mm 5.6° 993.4 hPa 7.1 m/s 0.0 mm 3.8° 997.5 hPa 4.9 m/s 5.7° 997.7 hPa 6.2 m/s
19:00 3.0° 1000.0 hPa 4.8 m/s 2.4 mm 4.3° 995.7 hPa 5.9 m/s 10.7 mm 3.0° 1000.2 hPa 3.3 m/s 0.5 mm 4.0° 997.5 hPa 5.6 m/s 0.0 mm 2.5° 1000.7 hPa 4.9 m/s 2.6° 1000.7 hPa 6.6 m/s
22:00 2.5° 1002.2 hPa 4.7 m/s 2.6 mm 1.8° 998.0 hPa 5.8 m/s 13.1 mm 2.6° 1002.2 hPa 4.1 m/s 0.7 mm 2.9° 1000.6 hPa 5.7 m/s 0.0 mm 1.9° 1002.8 hPa 4.5 m/s 2.9° 1002.8 hPa 4.6 m/s
 07:17     18:01    Daglengte: 10:44 Donderdag 27 Feb
01:00 2.2° 1003.2 hPa 5.1 m/s 4.0 mm 1.0° 999.5 hPa 6.0 m/s 16.1 mm 2.2° 1003.0 hPa 3.9 m/s 0.2 mm 3.0° 1001.9 hPa 6.4 m/s 0.0 mm 1.8° 1003.8 hPa 4.9 m/s 1.4° 1004.0 hPa 4.2 m/s
04:00 1.4° 1003.3 hPa 4.9 m/s 0.0 mm 1.7° 999.0 hPa 6.3 m/s 16.2 mm 1.9° 1003.6 hPa 4.2 m/s 0.0 mm 2.2° 1001.8 hPa 7.3 m/s 0.0 mm 0.3° 1003.6 hPa 4.6 m/s 1.3° 1003.9 hPa 5.3 m/s
07:00 1.0° 1002.9 hPa 4.8 m/s 0.0 mm 0.2° 999.0 hPa 5.1 m/s 16.4 mm 1.6° 1003.9 hPa 4.1 m/s 0.0 mm 2.4° 1001.5 hPa 7.2 m/s 0.0 mm 0.4° 1003.1 hPa 4.5 m/s 0.8° 1004.1 hPa 4.5 m/s
10:00 2.3° 1001.5 hPa 4.4 m/s 0.0 mm 2.5° 997.8 hPa 6.6 m/s 16.4 mm 2.5° 1003.5 hPa 3.7 m/s 0.0 mm 3.6° 1001.1 hPa 6.2 m/s 0.0 mm 2.1° 1002.0 hPa 3.9 m/s 2.2° 1002.4 hPa 5.5 m/s
13:00 4.0° 998.4 hPa 4.0 m/s 1.2 mm 3.5° 994.6 hPa 6.5 m/s 16.4 mm 4.2° 1000.9 hPa 3.8 m/s 0.1 mm 4.9° 998.9 hPa 4.8 m/s 0.0 mm 4.0° 998.7 hPa 3.6 m/s 3.8° 998.7 hPa 4.8 m/s
16:00 3.0° 994.2 hPa 2.9 m/s 3.9 mm 2.8° 989.5 hPa 4.1 m/s 16.8 mm 4.8° 997.2 hPa 2.6 m/s 0.1 mm 3.2° 994.9 hPa 2.2 m/s 1.7° 991.3 hPa 6.0 m/s
19:00 1.2° 995.1 hPa 2.7 m/s 6.7 mm 0.5° 990.2 hPa 2.8 m/s 22.0 mm 2.8° 996.8 hPa 2.2 m/s 0.1 mm 1.2° 996.3 hPa 2.2 m/s 0.3° 988.7 hPa 6.0 m/s
22:00 0.9° 998.8 hPa 3.4 m/s 6.3 mm 0.6° 994.6 hPa 4.0 m/s 27.6 mm 2.0° 998.9 hPa 2.2 m/s 0.2 mm 0.9° 1000.5 hPa 3.2 m/s 0.5° 996.2 hPa 5.9 m/s
 07:15     18:03    Daglengte: 10:48 Vrijdag 28 Feb
01:00 0.8° 1003.7 hPa 5.3 m/s 6.9 mm 1.8° 998.8 hPa 7.8 m/s 31.2 mm 0.4° 1002.0 hPa 3.7 m/s 2.6 mm 0.8° 1005.1 hPa 5.4 m/s 0.7° 1003.6 hPa 4.4 m/s
04:00 0.6° 1007.1 hPa 4.9 m/s 2.3 mm -0.0° 1001.9 hPa 7.1 m/s 31.2 mm 1.8° 1006.6 hPa 4.3 m/s 0.2 mm 0.5° 1008.4 hPa 4.7 m/s 0.3° 1006.9 hPa 5.6 m/s
07:00 0.4° 1009.8 hPa 4.7 m/s 2.3 mm 0.4° 1004.0 hPa 6.4 m/s 31.2 mm 1.2° 1009.9 hPa 4.0 m/s 0.0 mm 0.0° 1011.4 hPa 4.5 m/s -0.5° 1009.6 hPa 5.5 m/s
10:00 2.5° 1012.4 hPa 6.0 m/s 0.0 mm 3.8° 1007.1 hPa 8.8 m/s 31.8 mm 2.7° 1012.5 hPa 4.0 m/s 0.0 mm 2.6° 1014.2 hPa 6.0 m/s 2.3° 1012.1 hPa 6.9 m/s
13:00 5.2° 1013.5 hPa 6.6 m/s 0.0 mm 5.6° 1009.0 hPa 8.8 m/s 32.2 mm 5.7° 1013.5 hPa 5.5 m/s 0.1 mm 5.3° 1015.1 hPa 6.6 m/s 3.5° 1013.6 hPa 6.7 m/s
16:00 4.8° 1013.4 hPa 5.0 m/s 0.0 mm 5.7° 1009.0 hPa 7.4 m/s 32.2 mm 6.2° 1013.3 hPa 3.8 m/s 0.0 mm 3.8° 1014.4 hPa 4.9 m/s 3.7° 1012.9 hPa 5.7 m/s
19:00 3.2° 1012.7 hPa 3.3 m/s 0.0 mm 4.1° 1009.5 hPa 5.2 m/s 32.3 mm 4.0° 1012.2 hPa 2.4 m/s 0.0 mm 2.4° 1013.7 hPa 3.2 m/s 1.6° 1012.7 hPa 3.2 m/s
22:00 2.8° 1010.0 hPa 3.8 m/s 0.0 mm 2.2° 1008.6 hPa 2.7 m/s 32.4 mm 3.2° 1009.2 hPa 3.7 m/s 0.0 mm 2.8° 1010.9 hPa 4.2 m/s 1.6° 1011.7 hPa 3.1 m/s
 07:13     18:04    Daglengte: 10:51 Zaterdag 29 Feb
01:00 3.0° 1007.1 hPa 5.0 m/s 0.0 mm 0.2° 1006.7 hPa 3.4 m/s 32.4 mm 3.3° 1004.6 hPa 5.5 m/s 0.0 mm 3.3° 1008.1 hPa 5.1 m/s 1.3° 1008.5 hPa 3.1 m/s
04:00 4.3° 1003.5 hPa 5.0 m/s 15.9 mm 4.4° 1003.4 hPa 5.0 m/s 2.7° 1004.5 hPa 4.3 m/s 15.9 mm
07:00 4.9° 1001.1 hPa 5.0 m/s 20.1 mm 5.0° 1001.0 hPa 5.0 m/s 3.6° 1001.8 hPa 4.6 m/s 20.1 mm
10:00 8.1° 998.5 hPa 5.5 m/s 20.4 mm 8.2° 998.4 hPa 5.5 m/s 7.2° 1000.1 hPa 5.2 m/s 20.4 mm
13:00 11.2° 995.9 hPa 6.0 m/s 20.4 mm 11.3° 995.8 hPa 6.0 m/s 9.8° 997.3 hPa 5.8 m/s 20.4 mm
16:00 10.4° 993.3 hPa 6.5 m/s 20.4 mm 10.4° 993.2 hPa 6.5 m/s 9.4° 993.6 hPa 5.7 m/s 20.4 mm
19:00 9.5° 990.8 hPa 7.2 m/s 21.6 mm 9.6° 990.7 hPa 7.1 m/s 8.9° 992.4 hPa 7.9 m/s 21.6 mm
22:00 6.7° 994.8 hPa 7.4 m/s 22.9 mm 6.8° 994.7 hPa 7.4 m/s 5.5° 995.5 hPa 7.1 m/s 22.9 mm
 07:10     18:06    Daglengte: 10:56 Zondag 01 Maa
01:00 4.1° 998.7 hPa 7.6 m/s 22.9 mm 4.1° 998.7 hPa 7.7 m/s 4.0° 998.2 hPa 6.8 m/s 22.9 mm
04:00 3.2° 1000.8 hPa 7.0 m/s 22.9 mm 3.3° 1001.0 hPa 7.1 m/s 2.7° 999.4 hPa 6.4 m/s 22.9 mm
07:00 2.5° 1002.9 hPa 6.4 m/s 22.9 mm 2.5° 1003.2 hPa 6.4 m/s 2.2° 999.4 hPa 6.4 m/s 22.9 mm
10:00 5.2° 1003.4 hPa 7.4 m/s 22.9 mm 5.2° 1003.8 hPa 7.3 m/s 4.9° 999.5 hPa 8.9 m/s 22.9 mm
13:00 7.7° 1003.9 hPa 8.2 m/s 23.2 mm 8.0° 1004.4 hPa 8.2 m/s 4.2° 998.6 hPa 7.8 m/s 23.2 mm
16:00 6.6° 1003.4 hPa 6.6 m/s 23.9 mm 6.8° 1003.9 hPa 6.5 m/s 4.7° 997.7 hPa 7.4 m/s 23.9 mm
19:00 5.5° 1002.9 hPa 4.9 m/s 25.1 mm 5.6° 1003.4 hPa 4.9 m/s 4.2° 997.9 hPa 4.8 m/s 25.1 mm
22:00 4.3° 1001.1 hPa 4.9 m/s 27.5 mm 4.3° 1001.4 hPa 5.0 m/s 3.7° 997.9 hPa 4.6 m/s 27.5 mm
 07:08     18:08    Daglengte: 11:00 Maandag 02 Maa
01:00 3.1° 999.2 hPa 4.9 m/s 27.6 mm 3.1° 999.4 hPa 5.0 m/s 3.3° 997.6 hPa 4.3 m/s 27.6 mm
04:00 3.0° 997.6 hPa 4.6 m/s 27.6 mm 3.1° 997.5 hPa 4.7 m/s 2.5° 998.2 hPa 4.6 m/s 27.6 mm
07:00 3.0° 995.9 hPa 4.3 m/s 27.6 mm 3.1° 995.7 hPa 4.3 m/s 1.7° 998.7 hPa 4.0 m/s 27.6 mm
10:00 5.3° 995.7 hPa 4.5 m/s 27.6 mm 5.3° 995.5 hPa 4.4 m/s 5.0° 997.8 hPa 5.5 m/s 27.6 mm
13:00 7.4° 995.4 hPa 4.7 m/s 28.7 mm 7.5° 995.4 hPa 4.6 m/s 5.8° 995.3 hPa 5.4 m/s 28.7 mm
16:00 5.9° 997.4 hPa 3.9 m/s 29.8 mm 5.8° 997.7 hPa 3.8 m/s 6.7° 993.5 hPa 5.2 m/s 29.8 mm
19:00 4.2° 999.6 hPa 3.3 m/s 31.3 mm 4.2° 1000.0 hPa 2.9 m/s 4.5° 995.3 hPa 8.2 m/s 31.3 mm
22:00 2.6° 1002.0 hPa 3.1 m/s 31.4 mm 2.6° 1002.3 hPa 2.8 m/s 2.6° 998.9 hPa 6.4 m/s 31.4 mm
 07:06     18:10    Daglengte: 11:04 Dinsdag 03 Maa
01:00 1.1° 1004.4 hPa 2.8 m/s 31.4 mm 1.0° 1004.6 hPa 2.6 m/s 1.8° 1002.0 hPa 5.3 m/s 31.4 mm
04:00 0.3° 1006.4 hPa 2.7 m/s 31.4 mm 0.2° 1006.6 hPa 2.5 m/s 1.2° 1004.3 hPa 4.9 m/s 31.4 mm
07:00 -0.5° 1008.4 hPa 2.5 m/s 31.4 mm -0.6° 1008.6 hPa 2.3 m/s 0.8° 1006.5 hPa 4.5 m/s 31.4 mm
10:00 3.0° 1010.5 hPa 3.4 m/s 31.4 mm 2.8° 1010.8 hPa 3.2 m/s 4.1° 1007.8 hPa 5.8 m/s 31.4 mm
13:00 6.2° 1012.5 hPa 4.2 m/s 31.4 mm 6.3° 1012.9 hPa 4.1 m/s 5.1° 1008.4 hPa 5.1 m/s 31.4 mm
16:00 4.8° 1013.3 hPa 3.5 m/s 31.8 mm 4.5° 1013.8 hPa 3.3 m/s 7.3° 1007.8 hPa 5.0 m/s 31.8 mm
19:00 2.9° 1014.1 hPa 2.7 m/s 31.8 mm 2.8° 1014.8 hPa 2.6 m/s 3.9° 1007.0 hPa 3.2 m/s 31.8 mm
22:00 2.4° 1013.1 hPa 3.4 m/s 31.8 mm 2.3° 1013.8 hPa 3.3 m/s 3.6° 1005.8 hPa 4.2 m/s 31.8 mm
 07:04     18:12    Daglengte: 11:08 Woensdag 04 Maa
01:00 2.0° 1011.8 hPa 4.2 m/s 31.8 mm 1.8° 1012.7 hPa 4.1 m/s 4.2° 1002.2 hPa 4.9 m/s 31.8 mm
07:00 2.6° 1005.0 hPa 6.3 m/s 38.2 mm 2.4° 1006.0 hPa 6.5 m/s 4.9° 994.3 hPa 4.5 m/s 38.2 mm
13:00 7.5° 1001.7 hPa 6.7 m/s 40.2 mm 7.4° 1002.5 hPa 6.7 m/s 8.4° 992.4 hPa 6.2 m/s 40.2 mm
19:00 5.6° 1003.7 hPa 4.4 m/s 42.3 mm 5.6° 1004.4 hPa 4.3 m/s 5.5° 995.5 hPa 5.5 m/s 42.3 mm
 07:01     18:13    Daglengte: 11:12 Donderdag 05 Maa
01:00 4.9° 996.6 hPa 6.0 m/s 43.5 mm 5.1° 996.4 hPa 5.6 m/s 2.7° 998.8 hPa 9.9 m/s 43.5 mm
07:00 2.2° 996.1 hPa 10.2 m/s 45.2 mm 2.2° 995.4 hPa 10.3 m/s 1.6° 1003.7 hPa 9.6 m/s 45.2 mm
13:00 5.8° 1000.9 hPa 7.8 m/s 46.2 mm 5.8° 1000.1 hPa 7.7 m/s 6.0° 1009.3 hPa 8.4 m/s 46.2 mm
19:00 3.0° 1001.1 hPa 4.7 m/s 47.6 mm 3.0° 1000.0 hPa 4.7 m/s 3.1° 1012.7 hPa 4.4 m/s 47.6 mm
 06:59     18:15    Daglengte: 11:16 Vrijdag 06 Maa
01:00 2.0° 1000.4 hPa 5.3 m/s 47.6 mm 2.1° 999.1 hPa 5.4 m/s 1.3° 1014.1 hPa 4.5 m/s 47.6 mm
07:00 1.7° 999.3 hPa 6.5 m/s 47.8 mm 1.8° 998.0 hPa 6.6 m/s 1.1° 1013.8 hPa 4.9 m/s 47.8 mm
13:00 3.1° 1014.9 hPa 4.2 m/s 51.7 mm 3.1° 1014.8 hPa 4.2 m/s 51.7 mm
19:00 2.4° 1004.1 hPa 2.3 m/s 0.8 mm
 06:57     18:17    Daglengte: 11:20 Zaterdag 07 Maa
01:00 0.9° 1005.3 hPa 2.3 m/s 0.5 mm
07:00 0.3° 1005.4 hPa 1.9 m/s 0.9 mm
13:00 5.1° 1007.0 hPa 2.5 m/s 0.6 mm
19:00 2.5° 1008.0 hPa 1.1 m/s 0.9 mm
 06:55     18:19    Daglengte: 11:24 Zondag 08 Maa
01:00 0.9° 1010.2 hPa 0.9 m/s 0.6 mm
07:00 -0.0° 1011.4 hPa 0.9 m/s 0.4 mm
13:00 4.9° 1012.2 hPa 1.0 m/s 0.9 mm
19:00 2.7° 1012.6 hPa 0.3 m/s 1.1 mm
 06:52     18:20    Daglengte: 11:28 Maandag 09 Maa
01:00 1.0° 1014.3 hPa 0.8 m/s 0.6 mm
07:00 0.4° 1015.3 hPa 1.3 m/s 0.3 mm
13:00 5.8° 1016.0 hPa 2.2 m/s 0.4 mm
19:00 2.9° 1016.9 hPa 1.3 m/s 0.4 mm
 06:50     18:22    Daglengte: 11:32 Dinsdag 10 Maa
01:00 1.3° 1018.4 hPa 1.6 m/s 0.2 mm
07:00 0.7° 1019.5 hPa 1.6 m/s 0.8 mm
13:00 5.2° 1020.7 hPa 2.8 m/s 0.4 mm
19:00 2.7° 1021.0 hPa 2.4 m/s 0.6 mm
 06:48     18:24    Daglengte: 11:36 Woensdag 11 Maa
01:00 1.4° 1022.0 hPa 2.4 m/s 0.4 mm
07:00 1.5° 1022.3 hPa 2.0 m/s 0.3 mm
13:00 5.6° 1022.5 hPa 2.9 m/s 0.5 mm
19:00 2.9° 1022.9 hPa 1.9 m/s 0.8 mm
FMI Hirlam - 7.5 km EWN WRFDA - 12 km DWD ICON - 7 km GFS - 25 km Basiskaart






























































Updatetijd (Europe/Amsterdam) Resolutie Lengte Stap
FMI Hirlam 18:15, 00:15, 06:15, 12:15 7.5 km 49h 1h
EWN WRFDA 20:15, 02:15, 08:15, 14:15 12 km 73h 1h
DWD ICON 22:45, 04:45, 10:45, 16:45 7 km 75h 1h
GFS 18:45, 00:45, 06:45, 12:45 25 km 237h 3h
30+ mm
25-30 mm
20-25 mm
15-20 mm
10-15 mm
6-10 mm
4-6 mm
2-4 mm
1-2 mm
0.5-1 mm
0.2-0.5 mm
0.1-0.2 mm
30+ mm
25-30 mm
20-25 mm
15-20 mm
10-15 mm
6-10 mm
4-6 mm
2-4 mm
1-2 mm
0.5-1 mm
0.2-0.5 mm
0.1-0.2 mm
Sneeuwval
Natte sneeuw
Hagel
Vorst
30+ mm
25-30 mm
20-25 mm
15-20 mm
10-15 mm
6-10 mm
4-6 mm
2-4 mm
1-2 mm
0.5-1 mm
0.2-0.5 mm
0.1-0.2 mm
Sneeuwval
Natte sneeuw
Hagel
Vorst
Onweer
50 mm
40 mm
30 mm
26 mm
22 mm
18 mm
14 mm
10 mm
9 mm
8 mm
7 mm
6 mm
5 mm
4.5 mm
4 mm
3.5 mm
3 mm
2.5 mm
2 mm
1.5 mm
1 mm
0.8 mm
0.6 mm
0.4 mm
0.2 mm
0.05 mm
35°
30°
25°
20°
15°
10°
-5°
-10°
-15°
-20°
-25°
-30°
-35°
33> m/s
29 m/s
25 m/s
21 m/s
17 m/s
14 m/s
11 m/s
8 m/s
5 m/s
3 m/s
0 m/s
2600 J/kg
2400 J/kg
2200 J/kg
2000 J/kg
1800 J/kg
1600 J/kg
1400 J/kg
1200 J/kg
1000 J/kg
800 J/kg
600 J/kg
400 J/kg
200 J/kg
70 dBZ
65 dBZ
60 dBZ
55 dBZ
50 dBZ
45 dBZ
40 dBZ
35 dBZ
30 dBZ
25 dBZ
20 dBZ
15 dBZ
10 dBZ
5 dBZ
-1 K
-2 K
-3 K
-4 K
-5 K
-6 K
-7 K
-8 K
-9 K
950 m²/s²
900 m²/s²
850 m²/s²
800 m²/s²
750 m²/s²
700 m²/s²
650 m²/s²
600 m²/s²
550 m²/s²
500 m²/s²
450 m²/s²
400 m²/s²
350 m²/s²
300 m²/s²
250 m²/s²
200 m²/s²
150 m²/s²
100 m²/s²
46 m/s
44 m/s
42 m/s
40 m/s
38 m/s
36 m/s
34 m/s
32 m/s
30 m/s
28 m/s
26 m/s
24 m/s
22 m/s
20 m/s
16 m/s
12 m/s
8 m/s
4 m/s
30 m/s
28 m/s
26 m/s
24 m/s
22 m/s
20 m/s
18 m/s
16 m/s
14 m/s
12 m/s
10 m/s
8 m/s
6 m/s
4 m/s
2 m/s
3.0
2.8
2.6
2.4
2.2
2.0
1.8
1.6
1.4
1.2
1.0
0.8
0.6
0.4
0.2
15
14
13
12
11
10
9
8
7
6
5
4
3
2
1
90%
80%
70%
60%
50%
40%
30%
20%
10%
42
40
38
36
34
32
30
28
26
24
22
20
18
16
14
12
90+ cm
80-90 cm
70-80 cm
60-70 cm
50-60 cm
40-50 cm
30-40 cm
20-30 cm
10-20 cm
1-10 cm
Sneeuwval
Natte sneeuw
Regen
>120 mm
115 mm
110 mm
105 mm
100 mm
95 mm
90 mm
85 mm
80 mm
75 mm
70 mm
65 mm
60 mm
55 mm
50 mm
45 mm
45 mm
40 mm
35 mm
30 mm
25 mm
20 mm
15 mm
10 mm
5 mm
0.1 mm
960 hPa
880 hPa
800 hPa
720 hPa
640 hPa
560 hPa
584 gpdm
568 gpdm
552 gpdm
536 gpdm
520 gpdm
504 gpdm
488 gpdm
Extreem zwaar Noodweer Kans op onweer
15% 15% 5% 50% 15%

Dag




Kaart






35°
30°
25°
20°
15°
10°
-5°
-10°
-15°